Location: Ammerl�gen
(47.2167°N, 9.6000°E)
Time: 09:13:38
(UTC+00:00)

Cosmos 2251 - Visible Passes

Search period start: 28 October 2021 00:00
Search period end: 07 November 2021 00:00
Orbit: 764 x 802 km, 74.0° (Epoch: 27 October)

Date Brightness Start Highest point End Pass type
(mag) Time Alt. Az. Time Alt. Az. Time Alt. Az.
28 Oct 7.0 18:11:23 10° N 18:13:21 15° NNE 18:13:21 15° NNE visible
28 Oct 7.3 19:52:36 10° NNW 19:53:56 18° NNW 19:53:56 18° NNW visible
29 Oct 7.0 17:39:43 10° NNE 17:41:30 12° NE 17:41:30 12° NE visible
29 Oct 6.9 19:20:05 10° NNW 19:22:05 23° N 19:22:05 23° N visible
30 Oct 6.5 18:47:39 10° N 18:50:17 25° N 18:50:17 25° N visible
30 Oct 7.9 20:30:15 10° NW 20:30:51 13° NW 20:30:51 13° NW visible
31 Oct 6.4 18:15:19 10° N 18:18:31 25° NNE 18:18:31 25° NNE visible
31 Oct 7.3 19:57:26 10° NNW 19:59:06 20° NW 19:59:06 20° NW visible
01 Nov 6.4 17:43:07 10° N 17:46:49 21° NE 17:46:49 21° NE visible
01 Nov 6.6 19:24:44 10° NNW 19:27:25 30° NNW 19:27:25 30° NNW visible
02 Nov 6.7 17:11:06 10° N 17:14:14 15° NE 17:15:10 15° ENE visible
02 Nov 5.9 18:52:09 10° NNW 18:55:47 43° N 18:55:47 43° N visible
02 Nov 8.0 20:36:02 10° WNW 20:36:23 11° WNW 20:36:23 11° WNW visible
03 Nov 6.9 16:39:37 10° NNE 16:41:14 11° NE 16:42:49 10° ENE visible
03 Nov 5.4 18:19:40 10° NNW 18:24:13 48° NNE 18:24:13 48° NNE visible
03 Nov 7.4 20:02:42 10° NW 20:04:50 19° WNW 20:04:50 19° WNW visible
04 Nov 5.6 17:47:15 10° N 17:52:16 37° ENE 17:52:46 36° ENE visible
04 Nov 6.6 19:29:44 10° NW 19:33:24 32° WNW 19:33:24 32° WNW visible
05 Nov 6.0 17:14:56 10° N 17:19:29 26° NE 17:21:30 21° E visible
05 Nov 5.7 18:56:56 10° NNW 19:02:07 54° WSW 19:02:07 54° WSW visible
06 Nov 6.4 16:42:46 10° N 16:46:37 19° NE 16:50:24 10° E visible
06 Nov 5.1 18:24:17 10° NNW 18:29:43 80° WSW 18:31:03 52° S visible
06 Nov 7.9 20:09:24 10° WNW 20:11:09 12° W 20:11:42 11° W visible
